Погода в Пхетчабуне

Таиланд     16°25′31″N   101°09′47″E
темп.,
°C
ветер,
м/с
пор.,
м/с
влажн.,
%
обл.,
%
осадки,
мм/ч
давл.,
гПа
погр.,
м
2 декабря, чт
чт201:00+19св22715 0.0 101531
04:00+18св22745 0.0 101438
07:00+17св347967 0.0 101773
10:00+23с345442 0.0 1018891
13:00+26сз4447100 0.0 1014958
16:00+26с345577 0.0 1012348
19:00+20всв236068 0.0 101533
22:00+18всв226158 0.0 101811
3 декабря, пт
пт301:00+17св226216 0.0 101720
04:00+17св22646 0.0 101726
07:00+16св237436 0.0 101942
10:00+22с345558 0.0 1019786
13:00+25сз5451100 0.0 1015816
16:00+25сз455979 0.0 1013432
19:00+19в226819 0.0 101615
22:00+17св22665 0.0 101914
4 декабря, сб
сб401:00+16св226341 0.0 101819
04:00+15св22615 0.0 101724
07:00+14св226999 0.0 101928
10:00+22с334876 0.0 1020701
13:00+25сз4442100 0.0 1016894
16:00+24ссз3455100 0.0 1014212
19:00+18всв2257100 0.0 101621
22:00+16всв2259100 0.0 101911
5 декабря, вс
вс501:00+14св22619 0.0 101818
04:00+14св225951 0.0 101720
07:00+13св226970 0.0 101926
10:00+21ссз33526 0.0 1019590
13:00+24сз44467 0.0 1015952
16:00+26с234755 0.0 1013808
19:00+18всв22555 0.0 101627
22:00+16св116092 0.0 101711
6 декабря, пн
пн601:00+15св2261100 0.0 101720
04:00+15св2262100 0.0 101626
07:00+15св2271100 0.0 101732
10:00+21ссз3354100 0.0 1018560
13:00+24сз4447100 0.0 1015867
16:00+25сз2354100 0.0 1012247
19:00+19в2258100 0.0 101427
22:00+17всв116398 0.0 101611